Regional Weather Roundup
Issued by NWS

Home | Current Version | Previous Version | Graphics & Text | Print | Product List | Glossary On
Versions: 1 2 3 4 5 6 7 8 9 10 11 12 13 14 15 16 17 18 19 20 21 22 23 24 25 26 27 28 29 30 31 32 33 34 35 36 37 38 39 40 41 42 43 44 45 46 47 48 49 50
000
ASUS43 KMKX 301511
RWRWI

WISCONSIN REGIONAL WEATHER ROUNDUP
NATIONAL WEATHER SERVICE MILWAUKEE/SULLIVAN WI
1000 AM CDT SUN AUG 30 2015

NOTE: "FAIR" INDICATES FEW OR NO CLOUDS BELOW 12,000 FEET WITH NO
SIGNIFICANT WEATHER AND/OR OBSTRUCTIONS TO VISIBILITY.

WIZ001-002-006>008-014>016-023>028-301600-
NORTHWEST WISCONSIN

CITY           SKY/WX    TMP DP  RH WIND       PRES   REMARKS
SUPERIOR ARPT  SUNNY     69  63  80 SW10      29.94S
ASHLAND        SUNNY     71  64  78 SW14      29.95F
HAYWARD        PTSUNNY   67  61  81 S10       30.00F
SIREN          PTSUNNY   68  61  78 S8        29.99F
CUMBERLAND     CLOUDY    61  61 100 S9        30.02S
RICE LAKE      CLOUDY    63  60  92 S8        30.04S
CHETEK         CLOUDY   N/A N/A N/A S6        30.03S
LADYSMITH      CLOUDY    64  62  94 S9        30.05S
EAU CLAIRE     CLOUDY    67  61  81 SW12      30.03S
MENOMONIE      CLOUDY    63  63  99 S6        30.04S
NEW RICHMOND   CLOUDY    68  63  84 S12       30.02R
OSCEOLA        CLOUDY    67  66  97 S8        30.03R
$$

WIZ003>005-009-010-017-018-301600-
NORTH CENTRAL WISCONSIN

CITY           SKY/WX    TMP DP  RH WIND       PRES   REMARKS
MANITOWISH WTR CLOUDY    63  63  99 SW10      30.04S
ARBOR VITAE    CLOUDY    63  61  92 SW6       30.04F
WOODRUFF       CLOUDY    63  61  92 SW6       30.04F
RHINELANDER    CLOUDY    62  59  90 SW6       30.07S
EAGLE RIVER    CLOUDY    63  60  91 SW10      30.05R
LAND O LAKES   MOSUNNY   68  61  76 SW7       30.04S
PHILLIPS       CLOUDY    62  61  96 S6        30.04S
TOMAHAWK       CLOUDY    61  60  97 CALM      30.07R
MEDFORD        CLOUDY    62  62  99 SW6       30.07R
MERRILL        SUNNY     61  61 100 SW7       30.07S
$$

WIZ029-030-035-036-043>047-301600-
CENTRAL WISCONSIN

CITY           SKY/WX    TMP DP  RH WIND       PRES   REMARKS
WAUSAU         PTSUNNY   60  59  96 SW6       30.06S
MOSINEE        MOSUNNY   61  61 100 SW7       30.09R
MARSHFIELD     MOSUNNY   66  60  81 SW10      30.07S
STEVENS POINT  SUNNY     62  59  88 SW6       30.08S
WAUPACA        CLOUDY    64  63  96 CALM      30.08S
WAUTOMA        CLOUDY    63  63 100 SE5       30.09S FOG
WISC RAPIDS    SUNNY     67  60  78 SW8       30.09R
CAMP DOUGLAS   CLOUDY    64  64 100 S3        30.08R
$$

WIZ011>013-019>022-031-037>040-048>050-301600-
NORTHEAST WISCONSIN

CITY           SKY/WX    TMP DP  RH WIND       PRES   REMARKS
ANTIGO         MOSUNNY   61  61 100 SW9       30.08S
SHAWANO        MOSUNNY   62  61  96 S3        30.07S
OCONTO         SUNNY     65  65  97 SW3       30.06S
STURGEON BAY   SUNNY     64  61  88 SW5       30.09S
GREEN BAY      MOSUNNY   64  62  93 S3        30.08R FOG
MANITOWOC      CLOUDY    63  62  97 MISG      30.09S FOG
APPLETON       PTSUNNY   66  63  88 CALM      30.07S
CLINTONVILLE   MOSUNNY   61  61 100 S5        30.07R
OSHKOSH        PTSUNNY   65  62  90 SE6       30.08S FOG
$$

WIZ032>034-041-042-053>061-301600-
SOUTHWEST WISCONSIN

CITY           SKY/WX    TMP DP  RH WIND       PRES   REMARKS
LA CROSSE      CLOUDY    63  62  97 S8        30.06S FOG
SPARTA         SUNNY     64  60  87 CALM      30.08R
VIROQUA          N/A     65  63  92 S7        30.09S
BOSCOBEL       PTSUNNY   64  62  93 CALM      30.09R
PRAIRIE DU CHI CLOUDY    63  61  95 CALM      30.08R
PLATTEVILLE    PTSUNNY   67  63  85 SE5       30.10R
$$

WIZ056-057-062-063-064-067-068-301600-
SOUTH CENTRAL WISCONSIN

CITY           SKY/WX    TMP DP  RH WIND       PRES   REMARKS
REEDSBURG      SUNNY     65  61  85 CALM      30.09R
BARABOO/DELLS  SUNNY     67  59  75 CALM      30.09S
LONE ROCK      SUNNY     68  62  81 CALM      30.09S
MINERAL POINT  SUNNY     70  61  73 SE3       30.10R
MADISON        MOSUNNY   68  59  73 S6        30.09R
MIDDLETON      PTSUNNY   70  59  69 SE3       30.10R
WATERTOWN      CLOUDY    67  64  91 CALM      30.09S
MONROE         CLOUDY    64  59  82 CALM      30.10R
JANESVILLE     CLOUDY    66  64  94 E6        30.09R
$$

WIZ051-052-058>065-066-070>072-301600-
SOUTHEAST WISCONSIN

CITY           SKY/WX    TMP DP  RH WIND       PRES   REMARKS
MILWAUKEE      CLOUDY    65  63  93 N3        30.09R FOG
WAUKESHA       CLOUDY    64  61  88 CALM      30.10S FOG
MILWAUKEE/TIMM CLOUDY    64  61  88 CALM      30.10R FOG
RACINE         CLOUDY    66  63  90 N6        30.11R FOG
BURLINGTON     CLOUDY    65  61  85 CALM      30.10R
KENOSHA        CLOUDY    66  63  90 N3        30.10R FOG
FOND DU LAC    CLOUDY    65  62  90 CALM      30.09S FOG
SHEBOYGAN      CLOUDY    62  62 100 CALM      30.09S FOG
WEST BEND      CLOUDY    63  63 100 CALM      30.09S
JUNEAU         CLOUDY    61  61  99 CALM      30.11R FOG
$$

LSZ147-162-301600-
LAKE SUPERIOR

STATION/POSITION TIME  TEMP    WIND        PRES    WAVE
                       AIR SEA DIR/SP/G            HT/PER
                 (UTC) (F)     (DEG/KT/KT) (MB)    (FT/S)
W MID LAKE BUOY  1450   58 54  200/ 12/ 14 1013.4F   1/ 4
DEVILS ISLAND    1500   63     230/  8/  9 1013.6F
PORT WING        1440   69     210/ 10/ 14 1013.9F
SAXON HARBOR     1440   70     200/ 10/ 16 1013.9F
$$

LMZ867-665-643>646-301600-
LAKE MICHIGAN

STATION/POSITION TIME  TEMP    WIND        PRES    WAVE
                       AIR SEA DIR/SP/G            HT/PER
                 (UTC) (F)     (DEG/KT/KT) (MB)    (FT/S)
CHAMBERS ISLAND  1400   61     180/  4/  8 1017.6S
S GREEN BAY BUOY 1500   61 62  210/  8/ 10 1019.4
N MID LAKE BUOY  1450   63 65  210/ 10/ 10 1017.6R   1
NORTHPORT PIER   1400   65     180/  3/  7 1017.6S
SISTER BAY       1419   69     180/  7/  8   N/A
ALGOMA LAKESHORE 1314             CALM       N/A
SHEBOYGAN LAKESH 1500   52     120/  2/  3 1019.2F
PORT WASHINGTON  1400   59      40/  1/  2 1019.6
ATWATER BUOY     1500   55 50  340/  4/  4 1020.3R
MILWAUKEE LAKESH 1400   61      50/  3/  3   N/A
S MID LAKE BUOY  1450   66 68  350/ 10/ 12 1018.1R   1
KENOSHA   LAKESH 1500   61      50/  1/  2 1018.6S
$$

TC  - TEMPERATURE IN CELSIUS
VSB - VISIBILITY IN STATUTE MILES
WCI - WIND CHILL INDEX
HX  - HEAT INDEX



USA.gov is the U.S. government's official web portal to all federal, state and local government web resources and services.